| time (UTC) | temp F | wind direction | speed MPH | gust MPH | rain 1hr in | rain 24hr in | rain mn in | humidity % | barometer mb |
| 20260903003437 | 62 | 242 | 5.0 | 7.0 | 0.00 | 0.07 | 0.07 | 74 | 1016.2 |
| 20260903002932 | 64 | 186 | 2.0 | 2.0 | 0.00 | 0.07 | 0.07 | 71 | 1016.2 |
| 20260903002427 | 63 | 29 | 3.0 | 3.0 | 0.00 | 0.07 | 0.07 | 73 | 1016.2 |
| 20260903001927 | 62 | 203 | 5.0 | 7.0 | 0.00 | 0.07 | 0.07 | 74 | 1016.3 |
| 20260903001426 | 64 | 221 | 6.0 | 9.0 | 0.00 | 0.07 | 0.07 | 71 | 1016.1 |
| 20260903000926 | 63 | 207 | 3.0 | 5.0 | 0.00 | 0.07 | 0.07 | 72 | 1016.1 |
| 20260903000421 | 64 | 183 | 5.0 | 7.0 | 0.00 | 0.07 | 0.07 | 71 | 1016.1 |
| 20260902235920 | 62 | 270 | 4.0 | 6.0 | 0.00 | 0.07 | 0.07 | 73 | 1016.1 |
| 20260902235415 | 65 | 230 | 5.0 | 6.0 | 0.00 | 0.07 | 0.07 | 69 | 1015.8 |
| 20260902234915 | 66 | 262 | 4.0 | 6.0 | 0.00 | 0.07 | 0.07 | 66 | 1015.6 |
| 20260902234410 | 66 | 179 | 3.0 | 5.0 | 0.00 | 0.07 | 0.07 | 67 | 1015.5 |
| 20260902233909 | 66 | 224 | 6.0 | 8.0 | 0.00 | 0.07 | 0.07 | 66 | 1015.3 |
| 20260902233403 | 66 | 260 | 5.0 | 7.0 | 0.00 | 0.07 | 0.07 | 64 | 1015.0 |
| 20260902232902 | 67 | 245 | 6.0 | 7.0 | 0.00 | 0.07 | 0.07 | 61 | 1015.0 |
| 20260902232357 | 66 | 195 | 4.0 | 7.0 | 0.00 | 0.07 | 0.07 | 59 | 1014.9 |
| 20260902231856 | 66 | 148 | 4.0 | 6.0 | 0.00 | 0.07 | 0.07 | 61 | 1014.8 |
| 20260902231352 | 67 | 277 | 2.0 | 3.0 | 0.00 | 0.07 | 0.07 | 61 | 1014.5 |
| 20260902230846 | 66 | 231 | 2.0 | 2.0 | 0.00 | 0.07 | 0.07 | 63 | 1014.7 |
| 20260902230346 | 66 | 213 | 3.0 | 6.0 | 0.00 | 0.07 | 0.07 | 63 | 1014.5 |
| 20260902225840 | 66 | 205 | 2.0 | 3.0 | 0.00 | 0.07 | 0.07 | 63 | 1014.5 |
| 20260902225335 | 66 | 216 | 2.0 | 5.0 | 0.00 | 0.07 | 0.07 | 63 | 1014.6 |
| 20260902224833 | 65 | 248 | 3.0 | 3.0 | 0.00 | 0.07 | 0.07 | 65 | 1014.6 |
| 20260902224328 | 65 | 229 | 2.0 | 2.0 | 0.00 | 0.07 | 0.07 | 67 | 1014.6 |
| 20260902223825 | 64 | 200 | 1.0 | 2.0 | 0.00 | 0.07 | 0.07 | 67 | 1014.6 |
| 20260902223320 | 64 | 227 | 4.0 | 6.0 | 0.00 | 0.07 | 0.07 | 67 | 1014.6 |
| 20260902222819 | 64 | 149 | 2.0 | 2.0 | 0.00 | 0.07 | 0.07 | 68 | 1014.2 |
| 20260902222318 | 64 | 237 | 2.0 | 3.0 | 0.00 | 0.07 | 0.07 | 67 | 1014.3 |
| 20260902221813 | 63 | 163 | 2.0 | 5.0 | 0.00 | 0.07 | 0.07 | 68 | 1014.4 |
| 20260902221312 | 63 | 51 | 3.0 | 3.0 | 0.00 | 0.07 | 0.07 | 69 | 1014.4 |
| 20260902220808 | 63 | 185 | 1.0 | 1.0 | 0.00 | 0.07 | 0.07 | 70 | 1014.3 |
| 20260902220307 | 62 | 199 | 1.0 | 1.0 | 0.00 | 0.07 | 0.07 | 71 | 1014.1 |
| 20260902215803 | 61 | 163 | 2.0 | 2.0 | 0.00 | 0.07 | 0.07 | 73 | 1013.9 |
| 20260902215258 | 60 | 122 | 1.0 | 2.0 | 0.00 | 0.07 | 0.07 | 78 | 1013.9 |
| 20260902214754 | 58 | 95 | 3.0 | 5.0 | 0.00 | 0.07 | 0.07 | 83 | 1013.9 |
| 20260902214253 | 56 | 228 | 3.0 | 5.0 | 0.00 | 0.07 | 0.07 | 89 | 1013.6 |
| 20260902213748 | 54 | 83 | 1.0 | 2.0 | 0.00 | 0.07 | 0.07 | 97 | 1013.9 |
| 20260902213249 | 53 | 229 | 3.0 | 5.0 | 0.00 | 0.07 | 0.07 | 99 | 1013.6 |
| 20260902212747 | 52 | 164 | 2.0 | 2.0 | 0.00 | 0.07 | 0.07 | 99 | 1013.6 |
| 20260902212244 | 52 | 259 | 0.0 | 1.0 | 0.00 | 0.07 | 0.07 | 99 | 1013.5 |
| 20260902211740 | 52 | 209 | 0.0 | 0.0 | 0.00 | 0.07 | 0.07 | 99 | 1013.7 |
| 20260902211236 | 52 | 218 | 0.0 | 1.0 | 0.00 | 0.07 | 0.07 | 99 | 1013.5 |
| 20260902210736 | 52 | 194 | 1.0 | 1.0 | 0.00 | 0.07 | 0.07 | 99 | 1013.2 |
| 20260902210231 | 52 | 249 | 1.0 | 1.0 | 0.00 | 0.07 | 0.07 | 99 | 1013.2 |
| 20260902205729 | 52 | 112 | 0.0 | 1.0 | 0.00 | 0.07 | 0.07 | 99 | 1012.9 |
| 20260902205224 | 51 | 298 | 0.0 | 1.0 | 0.00 | 0.07 | 0.07 | 99 | 1013.1 |
| 20260902204719 | 51 | 127 | 0.0 | 1.0 | 0.00 | 0.07 | 0.07 | 99 | 1012.8 |
| 20260902204215 | 51 | 207 | 1.0 | 1.0 | 0.00 | 0.07 | 0.07 | 99 | 1012.8 |
| 20260902203709 | 51 | 293 | 2.0 | 3.0 | 0.00 | 0.07 | 0.07 | 99 | 1013.0 |
| 20260902203204 | 51 | 250 | 1.0 | 1.0 | 0.00 | 0.07 | 0.07 | 99 | 1012.8 |
| 20260902202659 | 51 | 270 | 0.0 | 1.0 | 0.00 | 0.07 | 0.07 | 99 | 1013.0 |
| 20260902202155 | 51 | 304 | 0.0 | 1.0 | 0.00 | 0.07 | 0.07 | 99 | 1012.8 |
| 20260902201652 | 50 | 299 | 0.0 | 0.0 | 0.00 | 0.07 | 0.07 | 99 | 1012.8 |
| 20260902201150 | 50 | 287 | 0.0 | 0.0 | 0.00 | 0.07 | 0.07 | 99 | 1012.5 |
| 20260902200645 | 51 | 291 | 0.0 | 0.0 | 0.00 | 0.07 | 0.07 | 99 | 1012.7 |
| 20260902200141 | 51 | 297 | 0.0 | 0.0 | 0.00 | 0.07 | 0.07 | 99 | 1012.5 |
| 20260902195637 | 51 | 267 | 0.0 | 0.0 | 0.00 | 0.07 | 0.07 | 99 | 1012.1 |
| 20260902195136 | 51 | 291 | 0.0 | 0.0 | 0.00 | 0.07 | 0.07 | 99 | 1012.4 |
| 20260902194635 | 51 | 251 | 0.0 | 0.0 | 0.00 | 0.07 | 0.07 | 99 | 1012.5 |
| 20260902194130 | 51 | 288 | 0.0 | 0.0 | 0.00 | 0.07 | 0.07 | 99 | 1012.6 |
| 20260902193626 | 51 | 308 | 0.0 | 0.0 | 0.00 | 0.07 | 0.07 | 99 | 1012.6 |
| 20260902193121 | 51 | 355 | 0.0 | 1.0 | 0.00 | 0.07 | 0.07 | 99 | 1012.5 |
| 20260902192619 | 52 | 87 | 0.0 | 1.0 | 0.00 | 0.07 | 0.07 | 99 | 1012.4 |
| 20260902192118 | 52 | 350 | 2.0 | 2.0 | 0.00 | 0.07 | 0.07 | 99 | 1012.5 |
| 20260902191614 | 52 | 339 | 1.0 | 1.0 | 0.00 | 0.07 | 0.07 | 99 | 1012.5 |
| 20260902191108 | 52 | 13 | 1.0 | 1.0 | 0.00 | 0.07 | 0.07 | 99 | 1012.1 |
| 20260902190604 | 52 | 308 | 0.0 | 0.0 | 0.00 | 0.07 | 0.07 | 99 | 1012.5 |
| 20260902190059 | 52 | 357 | 1.0 | 1.0 | 0.05 | 0.07 | 0.07 | 99 | 1012.3 |
| 20260902185554 | 52 | 328 | 1.0 | 2.0 | 0.12 | 0.07 | 0.07 | 99 | 1012.4 |
| 20260902185050 | 52 | 329 | 0.0 | 1.0 | 0.07 | 0.06 | 0.06 | 99 | 1012.7 |
| 20260902184545 | 52 | 296 | 0.0 | 0.0 | 0.00 | 0.05 | 0.05 | 99 | 1012.7 |
| 20260902184040 | 52 | 253 | 0.0 | 0.0 | 0.00 | 0.05 | 0.05 | 99 | 1012.7 |
| 20260902183536 | 52 | 304 | 0.0 | 0.0 | 0.00 | 0.05 | 0.05 | 99 | 1012.3 |
| 20260902183033 | 52 | 354 | 2.0 | 2.0 | 0.00 | 0.05 | 0.05 | 99 | 1012.4 |
| 20260902182528 | 52 | 13 | 1.0 | 1.0 | 0.00 | 0.05 | 0.05 | 99 | 1012.1 |
| 20260902182025 | 53 | 322 | 1.0 | 2.0 | 0.00 | 0.05 | 0.05 | 99 | 1012.6 |
| 20260902181521 | 53 | 328 | 0.0 | 1.0 | 0.00 | 0.05 | 0.05 | 99 | 1012.9 |
| 20260902181015 | 53 | 308 | 0.0 | 0.0 | 0.00 | 0.05 | 0.05 | 99 | 1013.0 |
| 20260902180514 | 53 | 298 | 0.0 | 0.0 | 0.00 | 0.05 | 0.05 | 98 | 1013.1 |
| 20260902180011 | 53 | 311 | 0.0 | 0.0 | 0.00 | 0.05 | 0.05 | 98 | 1013.3 |
| 20260902175510 | 53 | 339 | 0.0 | 1.0 | 0.00 | 0.05 | 0.05 | 97 | 1012.8 |
| 20260902175007 | 54 | 325 | 0.0 | 1.0 | 0.05 | 0.05 | 0.05 | 96 | 1012.6 |
| 20260902174503 | 54 | 337 | 0.0 | 1.0 | 0.00 | 0.04 | 0.04 | 95 | 1013.1 |
| 20260902173958 | 55 | 315 | 0.0 | 0.0 | 0.07 | 0.04 | 0.04 | 93 | 1013.6 |
| 20260902173457 | 55 | 233 | 1.0 | 2.0 | 0.12 | 0.04 | 0.04 | 91 | 1014.7 |
| 20260902172953 | 55 | 200 | 1.0 | 2.0 | 0.12 | 0.03 | 0.03 | 90 | 1014.7 |
| 20260902172452 | 56 | 183 | 2.0 | 2.0 | 0.14 | 0.02 | 0.02 | 87 | 1014.7 |
| 20260902171947 | 57 | 234 | 3.0 | 3.0 | 0.00 | 0.00 | 0.00 | 85 | 1014.4 |
| 20260902171443 | 57 | 207 | 2.0 | 2.0 | 0.00 | 0.00 | 0.00 | 83 | 1014.4 |
| 20260902170938 | 57 | 194 | 2.0 | 2.0 | 0.00 | 0.00 | 0.00 | 82 | 1013.4 |
| 20260902170433 | 57 | 202 | 2.0 | 2.0 | 0.00 | 0.00 | 0.00 | 82 | 1013.2 |
| 20260902165929 | 57 | 228 | 1.0 | 1.0 | 0.00 | 0.00 | 0.00 | 82 | 1013.0 |
| 20260902165429 | 56 | 212 | 2.0 | 2.0 | 0.00 | 0.00 | 0.00 | 83 | 1012.9 |
| 20260902164929 | 55 | 277 | 0.0 | 0.0 | 0.00 | 0.00 | 0.00 | 84 | 1012.8 |
| 20260902164424 | 55 | 274 | 0.0 | 0.0 | 0.00 | 0.00 | 0.00 | 84 | 1012.7 |
| 20260902163923 | 56 | 286 | 0.0 | 0.0 | 0.00 | 0.00 | 0.00 | 84 | 1013.0 |
| 20260902163419 | 56 | 282 | 0.0 | 0.0 | 0.00 | 0.00 | 0.00 | 83 | 1013.0 |
| 20260902162916 | 56 | 282 | 0.0 | 0.0 | 0.00 | 0.00 | 0.00 | 82 | 1013.1 |
| 20260902162412 | 56 | 302 | 0.0 | 0.0 | 0.00 | 0.00 | 0.00 | 82 | 1013.3 |
| 20260902161912 | 57 | 285 | 0.0 | 0.0 | 0.00 | 0.00 | 0.00 | 82 | 1013.6 |
| 20260902161407 | 57 | 292 | 0.0 | 0.0 | 0.00 | 0.00 | 0.00 | 81 | 1013.9 |
| 20260902160903 | 57 | 319 | 0.0 | 1.0 | 0.00 | 0.00 | 0.00 | 81 | 1013.7 |
| 20260902160358 | 57 | 358 | 2.0 | 2.0 | 0.00 | 0.00 | 0.00 | 82 | 1014.0 |
| 20260902155856 | 57 | 311 | 0.0 | 0.0 | 0.00 | 0.00 | 0.00 | 82 | 1014.1 |
| 20260902155356 | 56 | 306 | 1.0 | 1.0 | 0.00 | 0.00 | 0.00 | 83 | 1014.3 |
| 20260902154850 | 56 | 342 | 0.0 | 1.0 | 0.00 | 0.00 | 0.00 | 85 | 1014.4 |
| 20260902154346 | 56 | 307 | 0.0 | 0.0 | 0.00 | 0.00 | 0.00 | 85 | 1014.3 |
| 20260902153845 | 56 | 306 | 0.0 | 0.0 | 0.00 | 0.00 | 0.00 | 84 | 1014.6 |
| 20260902153344 | 56 | 297 | 0.0 | 0.0 | 0.00 | 0.00 | 0.00 | 84 | 1014.8 |
| 20260902152840 | 57 | 290 | 0.0 | 0.0 | 0.00 | 0.00 | 0.00 | 84 | 1014.6 |
| 20260902152336 | 57 | 303 | 1.0 | 1.0 | 0.00 | 0.00 | 0.00 | 84 | 1014.8 |
| 20260902151831 | 57 | 301 | 0.0 | 0.0 | 0.00 | 0.00 | 0.00 | 83 | 1015.1 |
| 20260902151326 | 57 | 289 | 0.0 | 0.0 | 0.00 | 0.00 | 0.00 | 83 | 1014.9 |
| 20260902150821 | 57 | 328 | 4.0 | 5.0 | 0.00 | 0.00 | 0.00 | 83 | 1015.1 |
| 20260902150318 | 57 | 4 | 1.0 | 1.0 | 0.00 | 0.00 | 0.00 | 83 | 1015.2 |
| 20260902145817 | 57 | 358 | 1.0 | 1.0 | 0.00 | 0.00 | 0.00 | 84 | 1015.2 |
| 20260902145312 | 57 | 329 | 0.0 | 0.0 | 0.00 | 0.00 | 0.00 | 84 | 1015.2 |
| 20260902144808 | 57 | 340 | 0.0 | 1.0 | 0.00 | 0.00 | 0.00 | 84 | 1015.5 |
| 20260902144303 | 57 | 342 | 1.0 | 2.0 | 0.00 | 0.00 | 0.00 | 83 | 1015.5 |
| 20260902143758 | 58 | 16 | 1.0 | 2.0 | 0.00 | 0.00 | 0.00 | 83 | 1015.3 |
| 20260902143253 | 58 | 20 | 1.0 | 1.0 | 0.00 | 0.00 | 0.00 | 83 | 1015.3 |
| 20260902142749 | 58 | 313 | 2.0 | 2.0 | 0.00 | 0.00 | 0.00 | 82 | 1015.8 |
| 20260902142245 | 58 | 6 | 0.0 | 1.0 | 0.00 | 0.00 | 0.00 | 82 | 1016.1 |
| 20260902141744 | 58 | 331 | 1.0 | 2.0 | 0.00 | 0.00 | 0.00 | 83 | 1015.9 |
| 20260902141241 | 57 | 282 | 1.0 | 1.0 | 0.00 | 0.00 | 0.00 | 83 | 1015.8 |
| 20260902140741 | 57 | 350 | 1.0 | 1.0 | 0.00 | 0.00 | 0.00 | 84 | 1016.1 |
| 20260902140236 | 57 | 5 | 1.0 | 2.0 | 0.00 | 0.00 | 0.00 | 84 | 1015.8 |
| 20260902135735 | 57 | 6 | 1.0 | 1.0 | 0.00 | 0.00 | 0.00 | 85 | 1015.8 |
| 20260902135231 | 56 | 274 | 0.0 | 1.0 | 0.00 | 0.00 | 0.00 | 86 | 1016.0 |
| 20260902134730 | 56 | 327 | 0.0 | 1.0 | 0.00 | 0.00 | 0.00 | 86 | 1016.0 |
| 20260902134226 | 57 | 340 | 1.0 | 1.0 | 0.00 | 0.00 | 0.00 | 86 | 1016.1 |
| 20260902133721 | 57 | 329 | 0.0 | 1.0 | 0.00 | 0.00 | 0.00 | 86 | 1016.3 |
| 20260902133220 | 56 | 296 | 2.0 | 3.0 | 0.00 | 0.00 | 0.00 | 86 | 1016.4 |
| 20260902132715 | 56 | 348 | 0.0 | 1.0 | 0.00 | 0.00 | 0.00 | 87 | 1016.8 |
| 20260902132211 | 55 | 229 | 0.0 | 1.0 | 0.00 | 0.00 | 0.00 | 88 | 1017.2 |
| 20260902131706 | 54 | 102 | 1.0 | 1.0 | 0.00 | 0.00 | 0.00 | 90 | 1017.0 |
| 20260902131202 | 53 | 289 | 0.0 | 0.0 | 0.00 | 0.00 | 0.00 | 89 | 1017.1 |
| 20260902130657 | 53 | 303 | 0.0 | 0.0 | 0.00 | 0.00 | 0.00 | 88 | 1017.2 |
| 20260902130153 | 52 | 275 | 0.0 | 0.0 | 0.00 | 0.00 | 0.00 | 88 | 1017.2 |
| 20260902125648 | 52 | 288 | 0.0 | 0.0 | 0.00 | 0.00 | 0.00 | 88 | 1017.0 |
| 20260902125144 | 52 | 288 | 0.0 | 0.0 | 0.00 | 0.00 | 0.00 | 88 | 1016.8 |
| 20260902124640 | 52 | 287 | 0.0 | 0.0 | 0.00 | 0.00 | 0.00 | 88 | 1017.0 |
| 20260902124140 | 52 | 277 | 0.0 | 0.0 | 0.00 | 0.00 | 0.00 | 88 | 1017.1 |
| 20260902123636 | 52 | 283 | 0.0 | 0.0 | 0.00 | 0.00 | 0.00 | 88 | 1016.7 |
| 20260902123137 | 52 | 285 | 0.0 | 0.0 | 0.00 | 0.00 | 0.00 | 88 | 1016.8 |
| 20260902122631 | 51 | 281 | 0.0 | 0.0 | 0.00 | 0.00 | 0.00 | 88 | 1017.1 |
| 20260902122126 | 51 | 269 | 0.0 | 0.0 | 0.00 | 0.00 | 0.00 | 88 | 1017.0 |
| 20260902121621 | 51 | 290 | 0.0 | 0.0 | 0.00 | 0.00 | 0.00 | 88 | 1017.0 |
| 20260902121115 | 51 | 295 | 0.0 | 0.0 | 0.00 | 0.00 | 0.00 | 88 | 1017.0 |
| 20260902120612 | 51 | 286 | 0.0 | 0.0 | 0.00 | 0.00 | 0.00 | 88 | 1017.3 |
| 20260902120108 | 51 | 298 | 0.0 | 0.0 | 0.00 | 0.00 | 0.00 | 88 | 1017.3 |
| 20260902115603 | 51 | 291 | 0.0 | 0.0 | 0.00 | 0.00 | 0.00 | 88 | 1017.1 |
| 20260902115059 | 51 | 305 | 0.0 | 0.0 | 0.00 | 0.00 | 0.00 | 88 | 1017.3 |
| 20260902114555 | 51 | 261 | 0.0 | 1.0 | 0.00 | 0.00 | 0.00 | 88 | 1017.2 |
| 20260902114054 | 51 | 247 | 0.0 | 0.0 | 0.00 | 0.00 | 0.00 | 87 | 1017.2 |
| 20260902113550 | 51 | 256 | 0.0 | 1.0 | 0.00 | 0.00 | 0.00 | 87 | 1017.1 |
| 20260902113045 | 51 | 236 | 0.0 | 1.0 | 0.00 | 0.00 | 0.00 | 87 | 1017.0 |
| 20260902112540 | 51 | 235 | 0.0 | 1.0 | 0.00 | 0.00 | 0.00 | 86 | 1017.0 |
| 20260902112037 | 51 | 247 | 0.0 | 1.0 | 0.00 | 0.00 | 0.00 | 86 | 1016.8 |
| 20260902111533 | 51 | 259 | 0.0 | 0.0 | 0.00 | 0.00 | 0.00 | 86 | 1017.3 |
| 20260902111028 | 52 | 272 | 0.0 | 0.0 | 0.00 | 0.00 | 0.00 | 85 | 1017.0 |
| 20260902110524 | 52 | 248 | 1.0 | 1.0 | 0.00 | 0.00 | 0.00 | 86 | 1016.8 |
| 20260902110019 | 52 | 260 | 0.0 | 1.0 | 0.00 | 0.00 | 0.00 | 85 | 1017.0 |
| 20260902105514 | 52 | 269 | 0.0 | 0.0 | 0.00 | 0.00 | 0.00 | 84 | 1016.6 |
| 20260902105014 | 52 | 278 | 0.0 | 0.0 | 0.00 | 0.00 | 0.00 | 84 | 1016.7 |
| 20260902104510 | 52 | 285 | 0.0 | 0.0 | 0.00 | 0.00 | 0.00 | 83 | 1017.0 |
| 20260902104004 | 52 | 286 | 0.0 | 0.0 | 0.00 | 0.00 | 0.00 | 83 | 1017.0 |
| 20260902103459 | 52 | 253 | 0.0 | 0.0 | 0.00 | 0.00 | 0.00 | 83 | 1017.0 |
| 20260902102954 | 53 | 294 | 0.0 | 0.0 | 0.00 | 0.00 | 0.00 | 82 | 1016.8 |
| 20260902102451 | 53 | 292 | 0.0 | 0.0 | 0.00 | 0.00 | 0.00 | 81 | 1017.2 |
| 20260902101947 | 53 | 282 | 0.0 | 0.0 | 0.00 | 0.00 | 0.00 | 80 | 1017.0 |
| 20260902101442 | 54 | 278 | 0.0 | 0.0 | 0.00 | 0.00 | 0.00 | 79 | 1017.2 |
| 20260902100941 | 54 | 269 | 0.0 | 0.0 | 0.00 | 0.00 | 0.00 | 80 | 1017.2 |
| 20260902100436 | 54 | 257 | 0.0 | 0.0 | 0.00 | 0.00 | 0.00 | 79 | 1017.2 |
| 20260902095936 | 54 | 282 | 0.0 | 0.0 | 0.00 | 0.00 | 0.00 | 77 | 1016.8 |
| 20260902095431 | 55 | 280 | 0.0 | 0.0 | 0.00 | 0.00 | 0.00 | 77 | 1017.3 |
| 20260902094930 | 55 | 274 | 0.0 | 0.0 | 0.00 | 0.00 | 0.00 | 76 | 1017.0 |
| 20260902094426 | 56 | 269 | 0.0 | 0.0 | 0.00 | 0.00 | 0.00 | 75 | 1017.0 |
| 20260902093920 | 56 | 247 | 0.0 | 1.0 | 0.00 | 0.00 | 0.00 | 75 | 1016.8 |
| 20260902093415 | 57 | 258 | 0.0 | 0.0 | 0.00 | 0.00 | 0.00 | 74 | 1016.7 |
| 20260902092914 | 57 | 274 | 0.0 | 0.0 | 0.00 | 0.00 | 0.00 | 72 | 1016.6 |
| 20260902092410 | 57 | 275 | 0.0 | 0.0 | 0.00 | 0.00 | 0.00 | 72 | 1016.7 |
| 20260902091910 | 58 | 242 | 0.0 | 1.0 | 0.00 | 0.00 | 0.00 | 72 | 1017.0 |
| 20260902091406 | 58 | 272 | 0.0 | 0.0 | 0.00 | 0.00 | 0.00 | 71 | 1016.7 |
| 20260902090903 | 59 | 304 | 0.0 | 0.0 | 0.00 | 0.00 | 0.00 | 70 | 1016.6 |
| 20260902090402 | 59 | 15 | 0.0 | 0.0 | 0.00 | 0.00 | 0.00 | 69 | 1016.8 |
| 20260902085901 | 59 | 256 | 0.0 | 0.0 | 0.00 | 0.00 | 0.00 | 68 | 1016.6 |
| 20260902085356 | 60 | 288 | 0.0 | 0.0 | 0.00 | 0.00 | 0.00 | 67 | 1016.5 |
| 20260902084852 | 60 | 299 | 0.0 | 1.0 | 0.00 | 0.00 | 0.00 | 67 | 1016.6 |
| 20260902084348 | 60 | 312 | 0.0 | 0.0 | 0.00 | 0.00 | 0.00 | 67 | 1016.7 |
| 20260902083843 | 60 | 11 | 0.0 | 1.0 | 0.00 | 0.00 | 0.00 | 67 | 1016.6 |
| 20260902083343 | 60 | 221 | 0.0 | 0.0 | 0.00 | 0.00 | 0.00 | 65 | 1017.1 |
| 20260902082838 | 60 | 261 | 0.0 | 0.0 | 0.00 | 0.00 | 0.00 | 64 | 1017.0 |
| 20260902082334 | 61 | 273 | 0.0 | 0.0 | 0.00 | 0.00 | 0.00 | 63 | 1016.8 |
| 20260902081830 | 61 | 256 | 0.0 | 0.0 | 0.00 | 0.00 | 0.00 | 62 | 1017.0 |
| 20260902081326 | 62 | 253 | 1.0 | 1.0 | 0.00 | 0.00 | 0.00 | 62 | 1016.6 |
| 20260902080821 | 62 | 269 | 0.0 | 0.0 | 0.00 | 0.00 | 0.00 | 60 | 1017.1 |
| 20260902080318 | 63 | 223 | 0.0 | 0.0 | 0.00 | 0.00 | 0.00 | 59 | 1017.0 |
| 20260902075817 | 63 | 173 | 1.0 | 2.0 | 0.00 | 0.00 | 0.00 | 59 | 1017.0 |
| 20260902075313 | 64 | 273 | 0.0 | 1.0 | 0.00 | 0.00 | 0.00 | 58 | 1017.0 |
| 20260902074808 | 64 | 233 | 1.0 | 1.0 | 0.00 | 0.00 | 0.00 | 57 | 1016.8 |
| 20260902074303 | 65 | 129 | 1.0 | 1.0 | 0.00 | 0.00 | 0.00 | 56 | 1016.5 |
| 20260902073758 | 65 | 255 | 1.0 | 1.0 | 0.00 | 0.00 | 0.00 | 55 | 1016.4 |
| 20260902073254 | 66 | 205 | 2.0 | 3.0 | 0.00 | 0.00 | 0.00 | 55 | 1016.5 |
| 20260902072750 | 66 | 125 | 0.0 | 1.0 | 0.00 | 0.00 | 0.00 | 54 | 1016.6 |
| 20260902072245 | 67 | 201 | 2.0 | 2.0 | 0.00 | 0.00 | 0.00 | 53 | 1016.3 |
| 20260902071742 | 67 | 46 | 1.0 | 1.0 | 0.00 | 0.00 | 0.00 | 53 | 1016.3 |
| 20260902071236 | 67 | 286 | 1.0 | 1.0 | 0.00 | 0.00 | 0.00 | 53 | 1016.6 |
| 20260902070733 | 68 | 261 | 1.0 | 2.0 | 0.00 | 0.00 | 0.00 | 52 | 1016.4 |
| 20260902070232 | 68 | 232 | 5.0 | 7.0 | 0.00 | 0.00 | 0.00 | 51 | 1016.4 |
| 20260902065731 | 68 | 191 | 3.0 | 5.0 | 0.00 | 0.00 | 0.00 | 51 | 1016.4 |
| 20260902065227 | 68 | 73 | 3.0 | 5.0 | 0.00 | 0.00 | 0.00 | 51 | 1016.4 |
| 20260902064722 | 69 | 319 | 2.0 | 2.0 | 0.00 | 0.00 | 0.00 | 51 | 1016.2 |
| 20260902064218 | 69 | 224 | 3.0 | 5.0 | 0.00 | 0.00 | 0.00 | 52 | 1016.5 |
| 20260902063714 | 69 | 233 | 2.0 | 2.0 | 0.00 | 0.00 | 0.00 | 54 | 1016.4 |
| 20260902063208 | 69 | 170 | 2.0 | 3.0 | 0.00 | 0.00 | 0.00 | 56 | 1016.4 |
| 20260902062708 | 69 | 236 | 2.0 | 2.0 | 0.00 | 0.00 | 0.00 | 56 | 1016.2 |
| 20260902062203 | 69 | 4 | 1.0 | 1.0 | 0.00 | 0.00 | 0.00 | 55 | 1016.4 |
| 20260902061701 | 69 | 247 | 0.0 | 1.0 | 0.00 | 0.00 | 0.00 | 54 | 1016.4 |
| 20260902061157 | 69 | 166 | 0.0 | 1.0 | 0.00 | 0.00 | 0.00 | 54 | 1016.5 |
| 20260902060654 | 70 | 260 | 1.0 | 2.0 | 0.00 | 0.00 | 0.00 | 53 | 1016.4 |
| 20260902060150 | 70 | 182 | 3.0 | 5.0 | 0.00 | 0.00 | 0.00 | 52 | 1016.6 |
| 20260902055645 | 70 | 218 | 3.0 | 3.0 | 0.00 | 0.00 | 0.00 | 53 | 1016.5 |
| 20260902055141 | 69 | 251 | 1.0 | 1.0 | 0.00 | 0.00 | 0.00 | 53 | 1016.3 |
| 20260902054636 | 70 | 133 | 2.0 | 3.0 | 0.00 | 0.00 | 0.00 | 52 | 1016.4 |
| 20260902054131 | 71 | 159 | 2.0 | 3.0 | 0.00 | 0.00 | 0.00 | 51 | 1016.4 |
| 20260902053627 | 70 | 184 | 3.0 | 5.0 | 0.00 | 0.00 | 0.00 | 52 | 1016.4 |
| 20260902053121 | 70 | 247 | 2.0 | 2.0 | 0.00 | 0.00 | 0.00 | 52 | 1016.5 |
| 20260902052621 | 70 | 246 | 4.0 | 6.0 | 0.00 | 0.00 | 0.00 | 51 | 1016.4 |
| 20260902052117 | 70 | 189 | 2.0 | 5.0 | 0.00 | 0.00 | 0.00 | 52 | 1016.4 |
| 20260902051616 | 71 | 147 | 2.0 | 2.0 | 0.00 | 0.00 | 0.00 | 50 | 1016.4 |
| 20260902051115 | 72 | 196 | 2.0 | 2.0 | 0.00 | 0.00 | 0.00 | 50 | 1016.5 |
| 20260902050610 | 72 | 170 | 2.0 | 3.0 | 0.00 | 0.00 | 0.00 | 50 | 1016.3 |
| 20260902050105 | 73 | 151 | 3.0 | 5.0 | 0.00 | 0.00 | 0.00 | 49 | 1016.6 |
| 20260902045601 | 73 | 312 | 3.0 | 5.0 | 0.00 | 0.00 | 0.00 | 48 | 1016.5 |
| 20260902045057 | 73 | 315 | 4.0 | 7.0 | 0.00 | 0.00 | 0.00 | 50 | 1016.2 |
| 20260902044556 | 72 | 76 | 4.0 | 9.0 | 0.00 | 0.00 | 0.00 | 52 | 1016.4 |
| 20260902044052 | 72 | 223 | 4.0 | 6.0 | 0.00 | 0.00 | 0.00 | 52 | 1016.2 |
| 20260902043548 | 71 | 70 | 1.0 | 2.0 | 0.00 | 0.00 | 0.00 | 53 | 1016.6 |
| 20260902043043 | 71 | 188 | 3.0 | 3.0 | 0.00 | 0.00 | 0.00 | 53 | 1016.4 |
| 20260902042542 | 73 | 266 | 4.0 | 5.0 | 0.00 | 0.00 | 0.00 | 50 | 1016.5 |
| 20260902042037 | 72 | 241 | 1.0 | 1.0 | 0.00 | 0.00 | 0.00 | 52 | 1016.6 |
| 20260902041532 | 73 | 71 | 1.0 | 2.0 | 0.00 | 0.00 | 0.00 | 50 | 1016.6 |
| 20260902041027 | 74 | 191 | 5.0 | 6.0 | 0.00 | 0.00 | 0.00 | 49 | 1016.5 |
| 20260902040526 | 74 | 303 | 2.0 | 2.0 | 0.00 | 0.00 | 0.00 | 49 | 1016.4 |
| 20260902040027 | 73 | 251 | 3.0 | 3.0 | 0.00 | 0.00 | 0.00 | 49 | 1016.7 |
| 20260902035520 | 73 | 219 | 2.0 | 2.0 | 0.00 | 0.00 | 0.00 | 50 | 1016.6 |
| 20260902035016 | 73 | 244 | 3.0 | 5.0 | 0.00 | 0.00 | 0.00 | 50 | 1016.7 |
| 20260902034515 | 73 | 36 | 2.0 | 3.0 | 0.00 | 0.00 | 0.00 | 50 | 1016.6 |
| 20260902034014 | 73 | 23 | 3.0 | 5.0 | 0.00 | 0.00 | 0.00 | 49 | 1017.0 |
| 20260902033513 | 74 | 191 | 3.0 | 3.0 | 0.00 | 0.00 | 0.00 | 48 | 1017.1 |
| 20260902033008 | 73 | 285 | 5.0 | 6.0 | 0.00 | 0.00 | 0.00 | 49 | 1017.0 |
| 20260902032502 | 73 | 171 | 2.0 | 2.0 | 0.00 | 0.00 | 0.00 | 49 | 1017.3 |
| 20260902031956 | 73 | 286 | 2.0 | 3.0 | 0.00 | 0.00 | 0.00 | 48 | 1017.3 |
| 20260902031452 | 73 | 35 | 1.0 | 2.0 | 0.00 | 0.00 | 0.00 | 48 | 1017.2 |
| 20260902030948 | 73 | 353 | 3.0 | 3.0 | 0.00 | 0.00 | 0.00 | 46 | 1017.3 |
| 20260902030448 | 73 | 343 | 3.0 | 6.0 | 0.00 | 0.00 | 0.00 | 46 | 1017.4 |
| 20260902025946 | 73 | 124 | 2.0 | 3.0 | 0.00 | 0.00 | 0.00 | 47 | 1017.5 |
| 20260902025442 | 72 | 187 | 1.0 | 2.0 | 0.00 | 0.00 | 0.00 | 47 | 1017.7 |
| 20260902024937 | 71 | 171 | 3.0 | 7.0 | 0.00 | 0.00 | 0.00 | 49 | 1017.6 |
| 20260902024432 | 72 | 249 | 5.0 | 8.0 | 0.00 | 0.00 | 0.00 | 48 | 1017.8 |
| 20260902023927 | 72 | 285 | 1.0 | 2.0 | 0.00 | 0.00 | 0.00 | 48 | 1017.9 |
| 20260902023424 | 72 | 62 | 3.0 | 3.0 | 0.00 | 0.00 | 0.00 | 49 | 1018.0 |
| 20260902022922 | 72 | 243 | 1.0 | 2.0 | 0.00 | 0.00 | 0.00 | 50 | 1017.9 |
| 20260902022417 | 72 | 224 | 1.0 | 1.0 | 0.00 | 0.00 | 0.00 | 50 | 1018.1 |
| 20260902021914 | 72 | 285 | 1.0 | 1.0 | 0.00 | 0.00 | 0.00 | 52 | 1018.1 |
| 20260902021413 | 71 | 174 | 3.0 | 5.0 | 0.00 | 0.00 | 0.00 | 51 | 1018.4 |
| 20260902020909 | 72 | 329 | 1.0 | 1.0 | 0.00 | 0.00 | 0.00 | 51 | 1018.6 |
| 20260902020405 | 72 | 202 | 4.0 | 7.0 | 0.00 | 0.00 | 0.00 | 52 | 1018.7 |
| 20260902015900 | 72 | 285 | 2.0 | 5.0 | 0.00 | 0.00 | 0.00 | 53 | 1018.8 |
| 20260902015355 | 70 | 5 | 1.0 | 2.0 | 0.00 | 0.00 | 0.00 | 54 | 1018.6 |
| 20260902014851 | 70 | 67 | 2.0 | 3.0 | 0.00 | 0.00 | 0.00 | 54 | 1018.8 |
| 20260902014348 | 70 | 107 | 3.0 | 3.0 | 0.00 | 0.00 | 0.00 | 53 | 1018.8 |
| 20260902013847 | 71 | 125 | 2.0 | 3.0 | 0.00 | 0.00 | 0.00 | 54 | 1018.8 |
| 20260902013342 | 70 | 245 | 2.0 | 3.0 | 0.00 | 0.00 | 0.00 | 55 | 1019.0 |
| 20260902012838 | 71 | 142 | 2.0 | 3.0 | 0.00 | 0.00 | 0.00 | 54 | 1019.2 |
| 20260902012334 | 71 | 158 | 1.0 | 2.0 | 0.00 | 0.00 | 0.00 | 55 | 1019.2 |
| 20260902011829 | 71 | 244 | 2.0 | 2.0 | 0.00 | 0.00 | 0.00 | 54 | 1019.1 |
| 20260902011324 | 71 | 348 | 1.0 | 2.0 | 0.00 | 0.00 | 0.00 | 56 | 1019.0 |
| 20260902010823 | 71 | 187 | 2.0 | 3.0 | 0.00 | 0.00 | 0.00 | 56 | 1019.1 |
| 20260902010318 | 69 | 193 | 4.0 | 7.0 | 0.00 | 0.00 | 0.00 | 56 | 1019.3 |
| 20260902005817 | 70 | 189 | 4.0 | 5.0 | 0.00 | 0.00 | 0.00 | 55 | 1019.3 |
| 20260902005312 | 69 | 359 | 2.0 | 2.0 | 0.00 | 0.00 | 0.00 | 57 | 1019.3 |
| 20260902004807 | 69 | 42 | 1.0 | 1.0 | 0.00 | 0.00 | 0.00 | 57 | 1019.4 |
| 20260902004302 | 69 | 306 | 2.0 | 2.0 | 0.00 | 0.00 | 0.00 | 57 | 1019.4 |
| 20260902003756 | 68 | 231 | 1.0 | 1.0 | 0.00 | 0.00 | 0.00 | 60 | 1019.5 |